Location: Palmerston North
(40.3500°S, 175.6170°E)
Time: 16:07:10
(UTC+13:00)

Cosmos 1818 - Pass Details

Date: 24 January 2019
Orbit: 771 x 802 km, 65.0° (Epoch: 19 February)

Event Time Altitude Azimuth Distance (km) Brightness Sun altitude
Exits shadow 23:47:55 21° 304° (NW) 1,691 5.2 -25.9°
Maximum altitude 23:51:21 54° 234° (SW) 950 4.2 -26.2°
Drops below altitude 10° 23:56:39 10° 156° (SSE) 2,350 6.5 -26.6°
Sets 23:59:08 0° 151° (SSE) 3,282 7.3 -26.8°
